Weather History for Santa Fe, NM

Change the Weather History Date:

Wednesday, February 5, 2014

  Actual Average Record
Temperature  
Mean Temperature 16 °F -  
Max Temperature 21 °F 0 °F 60 °F (2009)
Min Temperature 10 °F - 10 °F (2002)
Degree Days  
Heating Degree Days 50    
Moisture  
Dew Point 14 °F    
Average Humidity 80    
Maximum Humidity 89    
Minimum Humidity 71    
Precipitation  
Precipitation 0.00 in - - ()
Sea Level Pressure  
Sea Level Pressure 30.13 in    
Wind  
Wind Speed 12 mph (SE)    
Max Wind Speed 22 mph    
Max Gust Speed 28 mph    
Visibility 6 miles    
Events Fog , Snow    
Averages and records for this station are not official NWS values.
T = Trace of Precipitation, MM = Missing Value Source: NWS Daily Summary

Daily Weather History Graph

Daily Weather History Graph

Search for Another Location

Airport:

Trip Planner

Search our weather history database for the weather conditions in past years. The results will help you decide how hot, cold, wet, or windy it might be!

Date:

Astronomy

Feb. 05, 2014 Rise Set
Actual Time 7:00 AM MST 5:36 PM MST
Civil Twilight 6:34 AM MST 6:02 PM MST
Nautical Twilight 6:04 AM MST 6:33 PM MST
Astronomical Twilight 5:34 AM MST 7:03 PM MST
Moon 10:32 AM MST (2/5) No Moon Set
Length of Visible Light 11h 28m
Length of Day
10h 35m
Waxing Crescent, 40% of the Moon is Illuminated
Feb 5
Waxing Crescent
Feb 6
First Quarter
Feb 14
Full
Feb 22
Last Quarter
Mar 1
New

Hourly Weather History & Observations

Time (MST) Temp. Windchill Dew Point Humidity Pressure Visibility Wind Dir Wind Speed Gust Speed Precip Events Conditions
12:53 AM 19.0 °F 12.3 °F 16.0 °F 88% 30.08 in 10.0 mi NW 4.6 mph - N/A   Clear
1:53 AM 21.0 °F 16.2 °F 17.1 °F 85% 30.10 in 10.0 mi ESE 3.5 mph - N/A   Overcast
2:53 AM 21.9 °F - 18.0 °F 85% 30.10 in 10.0 mi Calm Calm - N/A   Overcast
3:53 AM 19.9 °F 14.9 °F 17.1 °F 89% 30.12 in 10.0 mi NNW 3.5 mph - N/A   Overcast
4:53 AM 19.0 °F 12.3 °F 16.0 °F 88% 30.12 in 10.0 mi North 4.6 mph - N/A   Overcast
5:53 AM 21.0 °F - 17.1 °F 85% 30.14 in 10.0 mi Calm Calm - N/A   Overcast
6:53 AM 21.0 °F - 18.0 °F 88% 30.17 in 10.0 mi Calm Calm - N/A   Mostly Cloudy
7:53 AM 21.0 °F 7.6 °F 16.0 °F 81% 30.18 in 10.0 mi SE 15.0 mph - N/A   Partly Cloudy
8:53 AM 19.9 °F 5.7 °F 15.1 °F 81% 30.21 in 9.0 mi SSE 16.1 mph - N/A   Mostly Cloudy
9:18 AM 19.9 °F 4.3 °F 15.1 °F 81% 30.13 in 9.0 mi SE 19.6 mph - N/A   Mostly Cloudy
9:53 AM 19.9 °F 4.8 °F 15.1 °F 81% 30.22 in 9.0 mi SE 18.4 mph - N/A   Overcast
10:31 AM 19.9 °F 4.8 °F 15.1 °F 81% 30.12 in 8.0 mi SE 18.4 mph - N/A   Mostly Cloudy
10:46 AM 21.0 °F 5.0 °F 15.1 °F 78% 30.12 in 8.0 mi SE 21.9 mph 26.5 mph N/A   Mostly Cloudy
10:53 AM 21.0 °F 6.6 °F 15.1 °F 78% 30.20 in 8.0 mi SE 17.3 mph 26.5 mph N/A   Mostly Cloudy
11:50 AM 21.2 °F 5.6 °F 14.0 °F 74% 30.10 in 0.8 mi SE 20.7 mph 27.6 mph N/A   Haze
11:53 AM 21.0 °F 5.4 °F 14.0 °F 74% 30.19 in 0.5 mi SE 20.7 mph - N/A   Haze
11:56 AM 21.0 °F 5.7 °F 14.0 °F 74% 30.10 in 3.0 mi SE 19.6 mph - N/A   Overcast
12:04 PM 21.0 °F 5.4 °F 14.0 °F 74% 30.09 in 3.0 mi SE 20.7 mph - 0.00 in Snow Light Snow
12:53 PM 19.9 °F 4.8 °F 12.9 °F 74% 30.18 in 3.0 mi SE 18.4 mph - 0.00 in Snow Light Snow
1:19 PM 21.0 °F 6.6 °F 12.9 °F 71% 30.07 in 2.5 mi SE 17.3 mph - 0.00 in Snow Light Snow
1:28 PM 21.0 °F 6.6 °F 12.9 °F 71% 30.07 in 0.8 mi SE 17.3 mph - 0.00 in Snow Light Snow
1:36 PM 21.0 °F 7.1 °F 12.9 °F 71% 30.07 in 2.0 mi SSE 16.1 mph - 0.00 in Snow Light Snow
1:53 PM 19.9 °F 5.7 °F 12.9 °F 74% 30.16 in 2.0 mi SE 16.1 mph - 0.00 in Snow Light Snow
2:25 PM 19.9 °F 6.7 °F 12.9 °F 74% 30.06 in 3.0 mi SE 13.8 mph - 0.00 in Snow Light Snow
2:35 PM 19.9 °F 6.2 °F 12.9 °F 74% 30.06 in 2.5 mi SE 15.0 mph - 0.00 in Snow Light Snow
2:44 PM 19.9 °F 5.2 °F 14.0 °F 78% 30.06 in 2.0 mi SE 17.3 mph - 0.00 in Snow Light Snow
2:51 PM 19.4 °F 4.5 °F 14.0 °F 80% 30.05 in 1.5 mi SE 17.3 mph - 0.00 in Snow Light Snow
2:53 PM 19.9 °F 4.8 °F 14.0 °F 78% 30.14 in 1.5 mi SE 18.4 mph - 0.00 in Snow Light Snow
3:32 PM 19.0 °F 5.0 °F 14.0 °F 81% 30.05 in 0.8 mi SE 15.0 mph - 0.00 in Snow Light Snow
3:42 PM 19.0 °F 6.1 °F 15.1 °F 85% 30.06 in 0.8 mi SE 12.7 mph - 0.00 in Snow Light Snow
3:53 PM 19.0 °F 4.5 °F 15.1 °F 85% 30.16 in 0.5 mi SE 16.1 mph - 0.00 in Fog , Snow Snow
4:03 PM 19.0 °F 5.6 °F 15.1 °F 85% 30.06 in 1.0 mi SE 13.8 mph - 0.00 in Snow Light Snow
4:18 PM 19.0 °F 4.5 °F 14.0 °F 81% 30.05 in 2.5 mi SE 16.1 mph - 0.00 in Snow Light Snow
4:27 PM 19.0 °F 4.0 °F 14.0 °F 81% 30.05 in 3.0 mi SSE 17.3 mph - 0.00 in Snow Light Snow
4:39 PM 19.0 °F 4.5 °F 14.0 °F 81% 30.05 in 1.8 mi SE 16.1 mph - 0.00 in Snow Light Snow
4:53 PM 18.0 °F 3.1 °F 14.0 °F 84% 30.17 in 1.8 mi SSE 16.1 mph - 0.00 in Snow Light Snow
4:59 PM 18.0 °F 3.6 °F 14.0 °F 84% 30.05 in 3.0 mi SE 15.0 mph - 0.00 in Snow Light Snow
5:53 PM 16.0 °F 1.7 °F 12.0 °F 84% 30.17 in 7.0 mi SSE 13.8 mph - 0.00 in   Mostly Cloudy
6:53 PM 14.0 °F -1.4 °F 10.0 °F 84% 30.19 in 9.0 mi SE 15.0 mph - N/A   Mostly Cloudy
7:43 PM 14.0 °F -1.4 °F 9.0 °F 80% 30.08 in 10.0 mi SE 15.0 mph - N/A   Overcast
7:53 PM 14.0 °F -0.8 °F 9.0 °F 80% 30.21 in 10.0 mi SSE 13.8 mph - N/A   Overcast
8:53 PM 12.9 °F -2.2 °F 7.0 °F 77% 30.22 in 10.0 mi SSE 13.8 mph - N/A   Overcast
9:53 PM 12.0 °F -6.0 °F 6.1 °F 77% 30.24 in 10.0 mi SSE 19.6 mph - N/A   Overcast
10:53 PM 10.9 °F -7.0 °F 6.1 °F 81% 30.23 in 10.0 mi SSE 18.4 mph - N/A   Overcast
11:53 PM 12.0 °F -4.5 °F 6.1 °F 77% 30.22 in 10.0 mi SE 16.1 mph - N/A   Overcast